Location: Brahman Valley
(40.6513°N, 111.8855°W)
Time: 09:26:18
(UTC+00:00)

Tiros 1 despin weight - Pass Details

Date: 18 May 2021
Orbit: 594 x 641 km, 48.2° (Epoch: 22 June)

Event Time Altitude Azimuth Distance (km) Brightness Sun altitude
Rises 04:12:09 0° 281° (W) 2,925 ? -15.1°
Reaches altitude 10° 04:14:41 10° 291° (WNW) 2,022 ? -15.4°
Maximum altitude 04:18:53 33° 356° (N) 1,087 ? -16.0°
Drops below altitude 10° 04:23:07 10° 60° (ENE) 2,033 ? -16.6°
Enters shadow 04:25:15 - 69° (ENE) 2,788 ? -16.8°
Sets 04:25:40 0° 70° (ENE) 2,942 - -16.9°
